TimeCDT,TemperatureF,Dew PointF,Humidity,Sea Level PressureIn,VisibilityMPH,Wind Direction,Wind SpeedMPH,Gust SpeedMPH,PrecipitationIn,Events,Conditions,WindDirDegrees,DateUTC
12:45 AM,80.6,75.2,84,29.85,7.0,ESE,17.3,-,N/A,,Clear,110,2013-05-22 05:45:00
1:44 AM,80.6,75.2,84,29.86,7.0,SE,10.4,-,N/A,,Clear,130,2013-05-22 06:44:00
2:43 AM,80.6,75.2,84,29.84,7.0,SE,10.4,-,N/A,,Partly Cloudy,140,2013-05-22 07:43:00
3:46 AM,80.6,75.2,84,29.83,7.0,SE,12.7,-,N/A,,Scattered Clouds,130,2013-05-22 08:46:00
4:45 AM,80.6,75.2,84,29.84,7.0,SE,13.8,-,N/A,,Scattered Clouds,140,2013-05-22 09:45:00
5:44 AM,80.6,75.2,84,29.85,7.0,ESE,11.5,-,N/A,,Scattered Clouds,120,2013-05-22 10:44:00
6:49 AM,82.4,75.2,79,29.86,7.0,SE,13.8,-,N/A,,Scattered Clouds,140,2013-05-22 11:49:00
7:41 AM,82.4,75.2,79,29.86,7.0,SE,16.1,-,N/A,,Mostly Cloudy,140,2013-05-22 12:41:00
8:41 AM,84.2,75.2,74,29.87,7.0,SE,16.1,-,N/A,,Mostly Cloudy,140,2013-05-22 13:41:00
9:43 AM,86.0,75.2,70,29.91,7.0,SSE,17.3,-,N/A,,Mostly Cloudy,150,2013-05-22 14:43:00
10:41 AM,86.0,75.2,70,29.90,7.0,SE,15.0,-,N/A,,Mostly Cloudy,130,2013-05-22 15:41:00
11:41 AM,87.8,73.4,62,29.90,7.0,SE,17.3,-,N/A,,Mostly Cloudy,130,2013-05-22 16:41:00
12:44 PM,87.8,73.4,62,29.89,7.0,SSE,15.0,-,N/A,,Scattered Clouds,160,2013-05-22 17:44:00
1:41 PM,87.8,75.2,66,29.88,7.0,ESE,12.7,-,N/A,,Mostly Cloudy,120,2013-05-22 18:41:00
2:42 PM,87.8,73.4,62,29.88,7.0,SE,13.8,-,N/A,,Mostly Cloudy,130,2013-05-22 19:42:00
3:41 PM,87.8,75.2,66,29.87,7.0,SSE,13.8,-,N/A,,Mostly Cloudy,150,2013-05-22 20:41:00
4:44 PM,86.0,75.2,70,29.85,7.0,ESE,17.3,-,N/A,,Mostly Cloudy,120,2013-05-22 21:44:00
5:44 PM,84.2,75.2,74,29.85,7.0,SE,13.8,-,N/A,,Mostly Cloudy,140,2013-05-22 22:44:00
6:41 PM,84.2,75.2,74,29.86,7.0,ESE,10.4,-,N/A,,Mostly Cloudy,110,2013-05-22 23:41:00
7:40 PM,82.4,75.2,79,29.87,7.0,ESE,6.9,-,N/A,,Mostly Cloudy,120,2013-05-23 00:40:00
8:42 PM,82.4,75.2,79,29.88,7.0,ESE,9.2,-,N/A,,Scattered Clouds,110,2013-05-23 01:42:00
9:45 PM,82.4,75.2,79,29.89,7.0,ESE,9.2,-,N/A,,Mostly Cloudy,120,2013-05-23 02:45:00
10:44 PM,82.4,75.2,79,29.92,7.0,ESE,9.2,-,N/A,,Mostly Cloudy,120,2013-05-23 03:44:00
11:44 PM,82.4,75.2,79,29.92,7.0,ESE,12.7,-,N/A,,Mostly Cloudy,120,2013-05-23 04:44:00